WBANNO,USDM_WEEK,LONGITUDE,LATITUDE,SMVWC_5_CM_MEAN,SMANOM_5_CM_MEAN,SMPERC_5_CM_30COUNTS,SMPERC_5_CM_70COUNTS,SMVWC_10_CM_MEAN,SMANOM_10_CM_MEAN,SMPERC_10_CM_30COUNTS,SMPERC_10_CM_70COUNTS,SMVWC_20_CM_MEAN,SMANOM_20_CM_MEAN,SMPERC_20_CM_30COUNTS,SMPERC_20_CM_70COUNTS,SMVWC_50_CM_MEAN,SMANOM_50_CM_MEAN,SMPERC_50_CM_30COUNTS,SMPERC_50_CM_70COUNTS,SMVWC_100_CM_MEAN,SMANOM_100_CM_MEAN,SMPERC_100_CM_30COUNTS,SMPERC_100_CM_70COUNTS,SMVWC_TOP_CM_MEAN,SMANOM_TOP_CM_MEAN,SMPERC_TOP_CM_30COUNTS,SMPERC_TOP_CM_70COUNTS,SMVWC_COLUMN_CM_MEAN,SMANOM_COLUMN_CM_MEAN,SMPERC_COLUMN_CM_30COUNTS,SMPERC_COLUMN_CM_70COUNTS
63850,20090426,-83.39,33.78,,,,,,,,,,,,,,,,,,,,,,,,,,,,
63850,20090427,-83.39,33.78,,,,,,,,,,,,,,,,,,,,,,,,,,,,
63850,20090428,-83.39,33.78,,,,,,,,,,,,,,,,,,,,,,,,,,,,
63850,20090429,-83.39,33.78,,,,,,,,,,,,,,,,,,,,,,,,,,,,
63850,20090430,-83.39,33.78,,,,,,,,,,,,,,,,,,,,,,,,,,,,
63850,20090501,-83.39,33.78,,,,,,,,,,,,,,,,,,,,,,,,,,,,
63850,20090502,-83.39,33.78,,,,,,,,,,,,,,,,,,,,,,,,,,,,
63850,20090503,-83.39,33.78,,,,,,,,,,,,,,,,,,,,,,,,,,,,
63850,20090504,-83.39,33.78,,,,,,,,,,,,,,,,,,,,,,,,,,,,
63850,20090505,-83.39,33.78,,,,,,,,,,,,,,,,,,,,,,,,,,,,
63850,20090506,-83.39,33.78,0.074,-0.12,0.633,0.331,0.084,-0.02,0.259,0.338,0.093,-0.08,0,0.014,0.201,0.13,0,0,0.289,0.16,0,0,0.079,-0.06,0.568,0.338,0.148,0.07,0,0.338
63850,20090507,-83.39,33.78,0.087,0.03,0.54,0.429,0.092,0.08,0.221,0.436,0.098,-0.01,0,0.043,0.202,0.15,0,0.012,0.289,0.17,0,0.006,0.09,0.07,0.485,0.436,0.153,0.16,0,0.436
63850,20090508,-83.39,33.78,0.11,0.29,0.411,0.56,0.106,0.26,0.107,0.565,0.107,0.14,0,0.185,0.206,0.25,0,0.155,0.298,0.31,0,0.149,0.108,0.3,0.357,0.565,0.165,0.37,0,0.565
63850,20090509,-83.39,33.78,0.133,0.55,0.268,0.702,0.121,0.43,0,0.708,0.117,0.29,0,0.327,0.209,0.34,0,0.298,0.307,0.46,0,0.292,0.127,0.52,0.214,0.708,0.177,0.57,0,0.708
63850,20090510,-83.39,33.78,0.153,0.79,0.125,0.845,0.134,0.59,0,0.851,0.125,0.43,0,0.47,0.213,0.42,0,0.44,0.316,0.61,0,0.435,0.143,0.73,0.071,0.851,0.188,0.76,0,0.851
63850,20090511,-83.39,33.78,0.172,1,0,0.988,0.144,0.72,0,0.994,0.132,0.54,0,0.613,0.216,0.51,0,0.583,0.326,0.76,0,0.577,0.158,0.9,0,0.994,0.198,0.93,0,0.994
63850,20090512,-83.39,33.78,0.176,1.06,0,1,0.145,0.74,0,1,0.135,0.6,0,0.744,0.219,0.58,0,0.726,0.332,0.88,0,0.72,0.16,0.94,0,1,0.201,1,0,1
63850,20090513,-83.39,33.78,0.178,1.07,0,1,0.144,0.75,0,1,0.136,0.63,0,0.887,0.221,0.64,0,0.869,0.336,0.97,0,0.863,0.161,0.95,0,1,0.203,1.04,0,1
63850,20090514,-83.39,33.78,0.177,1.07,0,1,0.143,0.75,0,1,0.135,0.64,0,1,0.223,0.69,0,1,0.34,1.04,0,1,0.16,0.95,0,1,0.203,1.06,0,1
63850,20090515,-83.39,33.78,0.171,1,0,1,0.138,0.7,0,1,0.13,0.59,0,1,0.221,0.66,0,1,0.333,0.96,0,1,0.154,0.89,0,1,0.198,1,0,1
63850,20090516,-83.39,33.78,0.165,0.94,0,1,0.134,0.67,0,1,0.126,0.54,0,0.982,0.219,0.64,0,1,0.325,0.87,0,1,0.149,0.84,0,1,0.194,0.93,0,1
63850,20090517,-83.39,33.78,0.163,0.92,0,1,0.134,0.68,0,1,0.125,0.53,0,0.982,0.217,0.62,0,1,0.317,0.77,0,1,0.149,0.84,0,1,0.191,0.9,0,1
63850,20090518,-83.39,33.78,0.164,0.93,0,1,0.135,0.7,0,1,0.124,0.54,0,0.982,0.215,0.61,0,1,0.308,0.66,0,1,0.149,0.86,0,1,0.189,0.88,0,1
63850,20090519,-83.39,33.78,0.163,0.93,0,1,0.135,0.71,0,1,0.124,0.55,0,0.982,0.214,0.6,0,1,0.303,0.59,0,1,0.149,0.86,0,1,0.188,0.86,0,1
63850,20090520,-83.39,33.78,0.162,0.92,0,1,0.135,0.72,0,1,0.124,0.55,0,0.982,0.213,0.6,0,1,0.299,0.54,0,1,0.149,0.85,0,1,0.187,0.85,0,1
63850,20090521,-83.39,33.78,0.161,0.9,0,1,0.134,0.71,0,1,0.123,0.55,0,0.982,0.212,0.61,0,1,0.296,0.51,0,1,0.148,0.84,0,1,0.185,0.84,0,1
63850,20090522,-83.39,33.78,0.159,0.88,0,1,0.134,0.71,0,1,0.123,0.55,0,0.982,0.211,0.61,0,1,0.295,0.49,0,1,0.147,0.83,0,1,0.184,0.83,0,1
63850,20090523,-83.39,33.78,0.159,0.87,0,1,0.133,0.7,0,1,0.123,0.55,0,0.994,0.211,0.62,0,1,0.293,0.48,0,1,0.146,0.81,0,1,0.184,0.82,0,1
63850,20090524,-83.39,33.78,0.156,0.82,0,1,0.13,0.66,0,1,0.12,0.52,0,0.911,0.21,0.63,0,1,0.292,0.46,0,1,0.143,0.77,0,1,0.182,0.78,0,1
63850,20090525,-83.39,33.78,0.154,0.79,0,1,0.128,0.62,0,1,0.118,0.48,0,0.851,0.209,0.62,0,1,0.291,0.45,0,1,0.141,0.73,0,1,0.18,0.75,0,1
63850,20090526,-83.39,33.78,0.154,0.76,0,1,0.126,0.59,0,1,0.116,0.45,0,0.851,0.209,0.61,0,1,0.291,0.45,0,1,0.14,0.7,0,1,0.179,0.72,0,1
63850,20090527,-83.39,33.78,0.153,0.74,0,1,0.126,0.57,0,1,0.115,0.43,0,0.78,0.208,0.58,0,0.994,0.29,0.44,0,0.982,0.139,0.68,0,1,0.178,0.7,0,1
63850,20090528,-83.39,33.78,0.153,0.72,0,1,0.126,0.55,0,0.976,0.115,0.41,0,0.637,0.207,0.54,0,0.911,0.289,0.43,0,0.94,0.139,0.66,0,1,0.178,0.68,0,1
63850,20090529,-83.39,33.78,0.152,0.68,0,0.893,0.125,0.52,0,0.851,0.114,0.38,0,0.494,0.206,0.5,0,0.774,0.289,0.42,0,0.845,0.139,0.63,0,0.893,0.177,0.64,0,0.923
63850,20090530,-83.39,33.78,0.148,0.62,0,0.75,0.124,0.47,0,0.708,0.113,0.34,0,0.357,0.205,0.45,0,0.631,0.288,0.41,0,0.75,0.136,0.58,0,0.75,0.176,0.6,0,0.78
63850,20090531,-83.39,33.78,0.14,0.52,0,0.607,0.12,0.41,0,0.565,0.112,0.29,0,0.298,0.204,0.4,0,0.488,0.288,0.4,0,0.619,0.13,0.5,0,0.607,0.173,0.54,0,0.637
63850,20090601,-83.39,33.78,0.127,0.36,0.065,0.464,0.114,0.31,0,0.423,0.109,0.23,0,0.214,0.204,0.35,0,0.345,0.287,0.4,0,0.476,0.12,0.36,0,0.464,0.168,0.44,0,0.494
63850,20090602,-83.39,33.78,0.11,0.16,0.208,0.321,0.104,0.18,0,0.28,0.104,0.15,0,0.071,0.203,0.3,0,0.202,0.286,0.39,0,0.333,0.107,0.19,0.107,0.321,0.162,0.33,0,0.351
63850,20090603,-83.39,33.78,0.095,-0.03,0.351,0.179,0.094,0.03,0.131,0.137,0.099,0.06,0,0,0.202,0.26,0,0.065,0.286,0.38,0,0.208,0.094,0.02,0.25,0.179,0.155,0.21,0,0.208
63850,20090604,-83.39,33.78,0.079,-0.22,0.494,0.036,0.083,-0.12,0.274,0.018,0.093,-0.04,0,0,0.2,0.22,0,0.006,0.285,0.36,0,0.107,0.081,-0.15,0.393,0.036,0.148,0.09,0,0.065
63850,20090605,-83.39,33.78,0.074,-0.29,0.524,0,0.082,-0.14,0.298,0.036,0.092,-0.08,0,0,0.199,0.19,0,0,0.284,0.35,0,0.06,0.078,-0.2,0.417,0.024,0.146,0.05,0,0
63850,20090606,-83.39,33.78,0.077,-0.27,0.524,0.006,0.085,-0.14,0.298,0.036,0.091,-0.1,0,0,0.198,0.16,0,0,0.283,0.33,0,0.012,0.081,-0.19,0.417,0.036,0.147,0.05,0,0
63850,20090607,-83.39,33.78,0.081,-0.24,0.524,0.006,0.086,-0.13,0.298,0.036,0.091,-0.12,0,0,0.197,0.14,0,0,0.282,0.31,0,0,0.084,-0.18,0.417,0.036,0.147,0.06,0,0
63850,20090608,-83.39,33.78,0.085,-0.2,0.458,0.006,0.088,-0.12,0.298,0.036,0.091,-0.13,0,0,0.196,0.12,0,0,0.281,0.28,0,0,0.087,-0.15,0.417,0.036,0.148,0.06,0,0
63850,20090609,-83.39,33.78,0.089,-0.16,0.315,0.006,0.089,-0.12,0.298,0.036,0.091,-0.14,0,0,0.195,0.11,0,0,0.28,0.25,0,0,0.089,-0.13,0.31,0.036,0.149,0.07,0,0
63850,20090610,-83.39,33.78,0.091,-0.14,0.298,0.006,0.09,-0.11,0.25,0.036,0.091,-0.14,0,0,0.194,0.1,0,0,0.279,0.22,0,0,0.091,-0.12,0.274,0.036,0.149,0.08,0,0
63850,20090611,-83.39,33.78,0.093,-0.12,0.298,0.006,0.091,-0.1,0.25,0.036,0.091,-0.14,0,0,0.192,0.08,0,0,0.279,0.2,0,0,0.092,-0.1,0.274,0.036,0.149,0.08,0,0
63850,20090612,-83.39,33.78,0.086,-0.2,0.411,0.006,0.081,-0.21,0.369,0,0.087,-0.19,0.036,0,0.191,0.06,0,0,0.278,0.17,0,0,0.083,-0.2,0.393,0.012,0.144,0.01,0,0
63850,20090613,-83.39,33.78,0.074,-0.33,0.512,0,0.072,-0.3,0.435,0,0.083,-0.25,0.113,0,0.188,0.03,0,0,0.277,0.16,0,0,0.073,-0.32,0.458,0,0.139,-0.08,0,0
63850,20090614,-83.39,33.78,0.066,-0.42,0.619,0,0.065,-0.38,0.464,0,0.079,-0.3,0.226,0,0.186,-0.01,0,0,0.276,0.15,0,0,0.065,-0.4,0.536,0,0.134,-0.14,0,0
63850,20090615,-83.39,33.78,0.059,-0.49,0.762,0,0.058,-0.45,0.607,0,0.074,-0.36,0.369,0,0.183,-0.06,0,0,0.276,0.15,0,0,0.059,-0.48,0.679,0,0.13,-0.21,0.06,0
63850,20090616,-83.39,33.78,0.054,-0.55,0.905,0,0.053,-0.51,0.75,0,0.07,-0.42,0.512,0,0.179,-0.13,0.054,0,0.275,0.15,0,0,0.053,-0.54,0.821,0,0.126,-0.27,0.202,0
63850,20090617,-83.39,33.78,0.051,-0.58,0.923,0,0.048,-0.57,0.81,0,0.065,-0.48,0.655,0,0.175,-0.22,0.196,0,0.274,0.15,0,0,0.049,-0.58,0.857,0,0.123,-0.32,0.345,0
63850,20090618,-83.39,33.78,0.049,-0.61,0.923,0,0.046,-0.6,0.81,0,0.06,-0.56,0.798,0,0.17,-0.31,0.339,0,0.273,0.15,0,0,0.047,-0.61,0.857,0,0.12,-0.37,0.488,0
63850,20090619,-83.39,33.78,0.049,-0.61,0.923,0,0.046,-0.61,0.81,0,0.056,-0.63,0.905,0,0.166,-0.4,0.482,0,0.272,0.15,0,0,0.047,-0.61,0.857,0,0.118,-0.4,0.631,0
63850,20090620,-83.39,33.78,0.047,-0.63,0.964,0,0.042,-0.66,0.887,0,0.051,-0.71,0.97,0,0.162,-0.48,0.625,0,0.271,0.15,0,0,0.044,-0.65,0.935,0,0.115,-0.46,0.774,0
63850,20090621,-83.39,33.78,0.044,-0.68,1,0,0.037,-0.73,1,0,0.046,-0.78,1,0,0.159,-0.56,0.768,0,0.27,0.15,0,0,0.04,-0.71,1,0,0.111,-0.51,0.917,0
63850,20090622,-83.39,33.78,0.041,-0.71,1,0,0.034,-0.77,1,0,0.044,-0.82,1,0,0.155,-0.65,0.911,0,0.269,0.16,0,0,0.038,-0.75,1,0,0.109,-0.55,1,0
63850,20090623,-83.39,33.78,0.04,-0.73,1,0,0.033,-0.8,1,0,0.042,-0.86,1,0,0.151,-0.72,1,0,0.269,0.17,0,0,0.036,-0.78,1,0,0.107,-0.58,1,0
63850,20090624,-83.39,33.78,0.039,-0.75,1,0,0.031,-0.83,1,0,0.041,-0.88,1,0,0.149,-0.78,1,0,0.268,0.18,0,0,0.035,-0.8,1,0,0.106,-0.6,1,0
63850,20090625,-83.39,33.78,0.037,-0.77,1,0,0.029,-0.86,1,0,0.041,-0.9,1,0,0.147,-0.83,1,0,0.267,0.19,0,0,0.033,-0.83,1,0,0.104,-0.62,1,0
63850,20090626,-83.39,33.78,0.035,-0.8,1,0,0.026,-0.9,1,0,0.04,-0.91,1,0,0.144,-0.89,1,0,0.266,0.2,0,0,0.03,-0.87,1,0,0.102,-0.65,1,0
63850,20090627,-83.39,33.78,0.033,-0.82,1,0,0.024,-0.92,1,0,0.039,-0.93,1,0,0.142,-0.94,1,0,0.265,0.21,0,0,0.029,-0.89,1,0,0.101,-0.67,1,0
63850,20090628,-83.39,33.78,0.032,-0.84,1,0,0.023,-0.93,1,0,0.038,-0.95,1,0,0.141,-0.98,1,0,0.264,0.21,0,0,0.027,-0.9,1,0,0.099,-0.69,1,0
63850,20090629,-83.39,33.78,0.031,-0.85,1,0,0.022,-0.94,1,0,0.035,-0.98,1,0,0.139,-1.01,1,0,0.262,0.21,0,0,0.026,-0.91,1,0,0.098,-0.71,1,0
63850,20090630,-83.39,33.78,0.03,-0.86,1,0,0.021,-0.94,1,0,0.032,-1.01,1,0,0.138,-1.04,1,0,0.26,0.2,0,0,0.025,-0.91,1,0,0.096,-0.74,1,0
63850,20090701,-83.39,33.78,0.029,-0.87,1,0,0.02,-0.94,1,0,0.029,-1.04,1,0,0.136,-1.06,1,0,0.258,0.18,0,0,0.025,-0.92,1,0,0.095,-0.77,1,0
63850,20090702,-83.39,33.78,0.028,-0.88,1,0,0.019,-0.94,1,0,0.027,-1.06,1,0,0.135,-1.08,1,0,0.256,0.16,0,0,0.024,-0.92,1,0,0.093,-0.79,1,0
63850,20090703,-83.39,33.78,0.027,-0.88,1,0,0.018,-0.93,1,0,0.025,-1.07,1,0,0.134,-1.1,1,0,0.253,0.13,0,0,0.023,-0.92,1,0,0.091,-0.82,1,0
63850,20090704,-83.39,33.78,0.025,-0.89,1,0,0.017,-0.93,1,0,0.023,-1.07,1,0,0.132,-1.11,1,0,0.25,0.1,0,0,0.021,-0.92,1,0,0.09,-0.85,1,0
63850,20090705,-83.39,33.78,0.024,-0.89,1,0,0.017,-0.92,1,0,0.022,-1.06,1,0,0.131,-1.12,1,0,0.248,0.07,0,0,0.02,-0.91,1,0,0.088,-0.87,1,0
63850,20090706,-83.39,33.78,0.025,-0.86,1,0,0.022,-0.83,0.899,0,0.024,-1.01,1,0,0.13,-1.12,1,0,0.245,0.05,0,0,0.024,-0.85,0.94,0,0.089,-0.84,1,0
63850,20090707,-83.39,33.78,0.03,-0.78,1,0,0.027,-0.74,0.833,0,0.026,-0.95,1,0,0.129,-1.12,1,0,0.244,0.03,0,0,0.028,-0.76,0.911,0,0.091,-0.79,1,0
63850,20090708,-83.39,33.78,0.035,-0.69,0.916,0,0.034,-0.63,0.735,0,0.028,-0.89,1,0,0.129,-1.12,1,0,0.242,0.02,0,0,0.034,-0.66,0.819,0,0.093,-0.73,1,0
63850,20090709,-83.39,33.78,0.045,-0.55,0.776,0,0.045,-0.47,0.594,0.024,0.036,-0.75,0.897,0,0.13,-1.08,1,0,0.241,0.01,0,0,0.045,-0.51,0.679,0,0.099,-0.6,0.897,0
63850,20090710,-83.39,33.78,0.057,-0.38,0.63,0,0.055,-0.32,0.448,0.024,0.044,-0.61,0.752,0,0.131,-1.04,1,0,0.241,0,0,0,0.056,-0.34,0.533,0,0.105,-0.46,0.752,0
63850,20090711,-83.39,33.78,0.067,-0.23,0.485,0,0.064,-0.2,0.303,0.024,0.051,-0.49,0.606,0,0.132,-0.99,1,0,0.24,0,0,0,0.065,-0.21,0.388,0,0.111,-0.35,0.606,0
63850,20090712,-83.39,33.78,0.075,-0.11,0.339,0,0.07,-0.1,0.158,0.024,0.058,-0.37,0.461,0,0.133,-0.94,1,0,0.24,0,0,0,0.073,-0.1,0.242,0,0.115,-0.25,0.461,0
63850,20090713,-83.39,33.78,0.08,-0.04,0.194,0,0.071,-0.09,0.133,0.024,0.06,-0.31,0.388,0,0.134,-0.89,1,0,0.24,-0.01,0,0,0.075,-0.05,0.176,0,0.117,-0.2,0.315,0
63850,20090714,-83.39,33.78,0.084,0.02,0.048,0,0.073,-0.05,0.055,0.024,0.063,-0.26,0.255,0,0.135,-0.85,1,0,0.24,-0.01,0,0,0.079,0,0.061,0,0.119,-0.15,0.17,0
63850,20090715,-83.39,33.78,0.085,0.04,0,0,0.072,-0.05,0.018,0.024,0.066,-0.21,0.18,0,0.136,-0.8,1,0,0.24,-0.01,0,0,0.078,0.01,0.018,0,0.12,-0.12,0.036,0
63850,20090716,-83.39,33.78,0.08,-0.01,0,0,0.066,-0.11,0.018,0,0.062,-0.25,0.274,0,0.136,-0.78,1,0,0.24,-0.01,0,0,0.073,-0.05,0.018,0,0.117,-0.16,0,0
63850,20090717,-83.39,33.78,0.075,-0.07,0,0,0.06,-0.17,0.018,0,0.059,-0.28,0.417,0,0.137,-0.76,1,0,0.239,-0.01,0,0,0.067,-0.11,0.018,0,0.114,-0.2,0,0
63850,20090718,-83.39,33.78,0.07,-0.11,0,0,0.056,-0.2,0.018,0,0.056,-0.31,0.548,0,0.137,-0.73,1,0,0.239,-0.01,0,0,0.063,-0.15,0.024,0,0.112,-0.22,0,0
63850,20090719,-83.39,33.78,0.068,-0.13,0,0,0.054,-0.22,0.036,0,0.054,-0.32,0.69,0,0.137,-0.71,1,0,0.239,-0.01,0,0,0.061,-0.17,0.024,0,0.111,-0.22,0,0
63850,20090720,-83.39,33.78,0.066,-0.14,0,0,0.052,-0.23,0.036,0,0.053,-0.33,0.762,0,0.137,-0.69,1,0,0.239,-0.01,0,0,0.059,-0.18,0.036,0,0.11,-0.23,0,0
63850,20090721,-83.39,33.78,0.062,-0.18,0.012,0,0.047,-0.27,0.137,0,0.051,-0.35,0.893,0,0.137,-0.66,1,0,0.239,-0.01,0,0,0.055,-0.23,0.143,0,0.107,-0.26,0,0
63850,20090722,-83.39,33.78,0.059,-0.21,0.113,0,0.045,-0.3,0.28,0,0.05,-0.36,0.976,0,0.137,-0.64,1,0,0.239,0,0,0,0.052,-0.25,0.286,0,0.106,-0.28,0.071,0
63850,20090723,-83.39,33.78,0.056,-0.24,0.256,0,0.042,-0.31,0.423,0,0.048,-0.38,0.988,0,0.137,-0.62,1,0,0.239,0,0,0,0.049,-0.27,0.429,0,0.105,-0.3,0.208,0
63850,20090724,-83.39,33.78,0.055,-0.25,0.315,0,0.044,-0.29,0.464,0,0.048,-0.38,0.911,0,0.137,-0.61,1,0,0.239,0,0,0,0.049,-0.26,0.47,0,0.105,-0.29,0.25,0
63850,20090725,-83.39,33.78,0.055,-0.24,0.315,0,0.045,-0.26,0.464,0,0.048,-0.38,0.917,0,0.137,-0.6,1,0,0.239,0,0,0,0.05,-0.23,0.464,0,0.105,-0.29,0.25,0
63850,20090726,-83.39,33.78,0.055,-0.24,0.315,0,0.045,-0.25,0.446,0,0.047,-0.38,0.917,0,0.137,-0.59,1,0,0.239,-0.01,0,0,0.05,-0.22,0.464,0,0.105,-0.29,0.25,0
63850,20090727,-83.39,33.78,0.055,-0.24,0.315,0,0.045,-0.25,0.494,0,0.047,-0.39,0.917,0,0.136,-0.58,1,0,0.239,-0.01,0,0,0.05,-0.21,0.44,0,0.104,-0.29,0.351,0
63850,20090728,-83.39,33.78,0.054,-0.24,0.375,0,0.044,-0.25,0.536,0,0.046,-0.4,0.917,0,0.136,-0.58,1,0,0.239,-0.01,0,0,0.049,-0.21,0.446,0,0.104,-0.3,0.494,0
63850,20090729,-83.39,33.78,0.053,-0.25,0.417,0,0.043,-0.26,0.536,0,0.044,-0.41,0.917,0,0.136,-0.57,1,0,0.239,-0.01,0,0,0.048,-0.22,0.446,0,0.103,-0.31,0.565,0
63850,20090730,-83.39,33.78,0.052,-0.25,0.417,0,0.042,-0.27,0.536,0,0.043,-0.42,0.917,0,0.136,-0.57,1,0,0.239,-0.02,0,0,0.047,-0.22,0.446,0,0.102,-0.32,0.571,0
63850,20090731,-83.39,33.78,0.051,-0.27,0.5,0,0.039,-0.31,0.637,0,0.04,-0.45,0.994,0,0.136,-0.57,1,0,0.238,-0.02,0,0,0.045,-0.26,0.548,0,0.101,-0.36,0.673,0
63850,20090801,-83.39,33.78,0.05,-0.28,0.536,0,0.039,-0.3,0.667,0,0.038,-0.46,1,0,0.135,-0.57,1,0,0.238,-0.02,0,0,0.045,-0.25,0.577,0,0.1,-0.36,0.708,0
63850,20090802,-83.39,33.78,0.053,-0.23,0.536,0,0.043,-0.24,0.667,0,0.038,-0.45,0.94,0,0.135,-0.57,1,0,0.238,-0.02,0,0,0.048,-0.2,0.577,0,0.101,-0.34,0.708,0
63850,20090803,-83.39,33.78,0.058,-0.16,0.536,0,0.048,-0.17,0.601,0,0.038,-0.43,0.798,0,0.135,-0.57,1,0,0.238,-0.02,0,0,0.053,-0.13,0.571,0,0.103,-0.29,0.607,0
63850,20090804,-83.39,33.78,0.062,-0.1,0.464,0,0.052,-0.11,0.458,0,0.039,-0.4,0.655,0,0.135,-0.56,1,0,0.239,-0.02,0,0,0.057,-0.07,0.458,0,0.105,-0.25,0.464,0
63850,20090805,-83.39,33.78,0.066,-0.05,0.321,0,0.055,-0.07,0.315,0,0.04,-0.37,0.512,0,0.135,-0.55,1,0,0.239,-0.02,0,0,0.06,-0.02,0.315,0,0.107,-0.21,0.321,0
63850,20090806,-83.39,33.78,0.068,-0.02,0.179,0,0.057,-0.04,0.173,0,0.042,-0.34,0.369,0,0.135,-0.53,1,0,0.239,-0.03,0,0,0.062,0,0.173,0,0.108,-0.18,0.179,0
63850,20090807,-83.39,33.78,0.069,-0.02,0.089,0,0.057,-0.04,0.143,0,0.043,-0.32,0.339,0,0.135,-0.52,1,0,0.239,-0.03,0,0,0.063,0,0.143,0,0.109,-0.17,0.125,0
63850,20090808,-83.39,33.78,0.067,-0.05,0.196,0,0.053,-0.1,0.256,0,0.042,-0.32,0.339,0,0.135,-0.51,1,0,0.239,-0.03,0,0,0.06,-0.05,0.256,0,0.107,-0.19,0.232,0
63850,20090809,-83.39,33.78,0.061,-0.14,0.339,0,0.047,-0.19,0.399,0,0.04,-0.35,0.399,0,0.135,-0.49,1,0,0.238,-0.04,0,0,0.054,-0.15,0.399,0,0.104,-0.24,0.375,0
63850,20090810,-83.39,33.78,0.054,-0.26,0.482,0,0.04,-0.3,0.542,0,0.037,-0.39,0.542,0,0.134,-0.49,1,0,0.238,-0.05,0,0,0.047,-0.27,0.542,0,0.1,-0.31,0.518,0
63850,20090811,-83.39,33.78,0.046,-0.37,0.625,0,0.034,-0.38,0.685,0,0.035,-0.43,0.685,0,0.134,-0.49,1,0,0.237,-0.06,0,0,0.04,-0.37,0.685,0,0.097,-0.38,0.661,0
63850,20090812,-83.39,33.78,0.045,-0.41,0.708,0,0.037,-0.37,0.768,0.06,0.038,-0.42,0.768,0,0.136,-0.42,0.94,0.024,0.24,-0.03,0,0.054,0.041,-0.39,0.768,0,0.099,-0.36,0.744,0.06
63850,20090813,-83.39,33.78,0.052,-0.33,0.708,0,0.049,-0.24,0.768,0.202,0.048,-0.33,0.768,0,0.144,-0.28,0.798,0.024,0.247,0.05,0,0.173,0.051,-0.29,0.768,0.065,0.108,-0.22,0.744,0.202
63850,20090814,-83.39,33.78,0.06,-0.25,0.655,0,0.06,-0.14,0.655,0.208,0.056,-0.25,0.655,0,0.15,-0.17,0.655,0.024,0.25,0.07,0,0.173,0.06,-0.19,0.655,0.065,0.115,-0.12,0.655,0.22
63850,20090815,-83.39,33.78,0.067,-0.17,0.512,0,0.068,-0.06,0.512,0.208,0.065,-0.17,0.512,0,0.155,-0.08,0.512,0.024,0.252,0.09,0,0.173,0.068,-0.11,0.512,0.065,0.121,-0.03,0.512,0.22
63850,20090816,-83.39,33.78,0.074,-0.11,0.369,0,0.076,0.01,0.369,0.208,0.073,-0.11,0.369,0,0.16,0,0.369,0.024,0.254,0.11,0,0.173,0.075,-0.04,0.369,0.065,0.127,0.04,0.369,0.22
63850,20090817,-83.39,33.78,0.08,-0.04,0.226,0,0.082,0.07,0.226,0.208,0.08,-0.06,0.226,0,0.165,0.07,0.226,0.024,0.255,0.12,0,0.173,0.081,0.02,0.226,0.065,0.132,0.11,0.226,0.22
63850,20090818,-83.39,33.78,0.087,0.02,0.083,0,0.09,0.14,0.083,0.208,0.087,-0.01,0.083,0,0.169,0.13,0.083,0.024,0.257,0.14,0,0.173,0.088,0.09,0.083,0.065,0.138,0.18,0.083,0.22
63850,20090819,-83.39,33.78,0.09,0.06,0,0,0.091,0.14,0,0.149,0.088,-0.02,0.006,0,0.169,0.12,0,0,0.256,0.12,0,0.119,0.091,0.11,0,0.065,0.139,0.18,0,0.161
63850,20090820,-83.39,33.78,0.086,0,0,0,0.082,0.02,0,0.006,0.083,-0.1,0.089,0,0.165,0.02,0,0,0.249,0.05,0,0,0.084,0.01,0,0,0.133,0.06,0,0.018
63850,20090821,-83.39,33.78,0.083,-0.05,0,0,0.076,-0.07,0,0,0.079,-0.17,0.232,0,0.162,-0.05,0.036,0,0.248,0.04,0,0,0.08,-0.05,0,0,0.13,-0.01,0,0
63850,20090822,-83.39,33.78,0.085,-0.05,0,0.036,0.078,-0.06,0,0.048,0.08,-0.17,0.321,0.048,0.163,-0.05,0.071,0.042,0.252,0.07,0,0.042,0.081,-0.05,0,0.048,0.132,-0.01,0,0.048
63850,20090823,-83.39,33.78,0.09,0.01,0,0.036,0.086,0.03,0,0.19,0.088,-0.08,0.321,0.19,0.169,0.03,0.071,0.107,0.263,0.19,0,0.185,0.088,0.03,0,0.173,0.14,0.11,0,0.19
63850,20090824,-83.39,33.78,0.097,0.08,0,0.042,0.095,0.12,0,0.327,0.096,0.01,0.321,0.25,0.174,0.11,0.071,0.107,0.268,0.23,0,0.202,0.096,0.11,0,0.238,0.146,0.21,0,0.333
63850,20090825,-83.39,33.78,0.103,0.16,0,0.065,0.101,0.2,0,0.387,0.103,0.09,0.321,0.25,0.179,0.18,0.071,0.107,0.271,0.26,0,0.202,0.102,0.19,0,0.25,0.151,0.29,0,0.464
63850,20090826,-83.39,33.78,0.107,0.22,0,0.065,0.107,0.27,0,0.387,0.109,0.16,0.315,0.25,0.183,0.25,0.071,0.107,0.274,0.28,0,0.202,0.107,0.25,0,0.25,0.156,0.36,0,0.518
63850,20090827,-83.39,33.78,0.111,0.27,0,0.065,0.112,0.34,0,0.387,0.114,0.24,0.232,0.25,0.187,0.31,0.071,0.107,0.276,0.3,0,0.202,0.112,0.32,0,0.25,0.16,0.43,0,0.518
63850,20090828,-83.39,33.78,0.115,0.33,0,0.065,0.118,0.41,0,0.387,0.119,0.3,0.089,0.25,0.191,0.38,0.036,0.107,0.278,0.32,0,0.202,0.116,0.38,0,0.25,0.164,0.5,0,0.518
63850,20090829,-83.39,33.78,0.119,0.4,0,0.149,0.124,0.49,0,0.458,0.124,0.38,0,0.315,0.194,0.44,0,0.167,0.277,0.31,0,0.161,0.121,0.46,0,0.321,0.168,0.58,0,0.589
63850,20090830,-83.39,33.78,0.12,0.42,0,0.292,0.123,0.49,0,0.458,0.123,0.37,0,0.315,0.193,0.44,0,0.244,0.27,0.23,0,0.018,0.122,0.47,0,0.339,0.166,0.56,0,0.589
63850,20090831,-83.39,33.78,0.122,0.44,0,0.429,0.124,0.51,0,0.464,0.123,0.39,0,0.399,0.193,0.46,0,0.387,0.271,0.24,0,0.03,0.123,0.5,0,0.417,0.167,0.59,0,0.589
63850,20090901,-83.39,33.78,0.124,0.47,0,0.548,0.126,0.54,0,0.548,0.125,0.41,0,0.542,0.194,0.49,0,0.53,0.273,0.26,0,0.095,0.125,0.53,0,0.548,0.168,0.63,0,0.601
63850,20090902,-83.39,33.78,0.126,0.5,0,0.69,0.129,0.57,0,0.69,0.126,0.44,0,0.685,0.195,0.52,0,0.661,0.277,0.29,0,0.119,0.127,0.56,0,0.69,0.17,0.68,0,0.69
63850,20090903,-83.39,33.78,0.128,0.53,0,0.78,0.131,0.6,0,0.833,0.128,0.47,0,0.738,0.196,0.54,0,0.726,0.278,0.3,0,0.119,0.129,0.59,0,0.833,0.172,0.72,0,0.833
63850,20090904,-83.39,33.78,0.129,0.54,0,0.78,0.133,0.62,0,0.857,0.129,0.49,0,0.738,0.197,0.56,0,0.726,0.28,0.31,0,0.119,0.131,0.61,0,0.839,0.174,0.75,0,0.976
63850,20090905,-83.39,33.78,0.125,0.48,0,0.661,0.128,0.56,0,0.738,0.126,0.45,0,0.625,0.196,0.54,0,0.625,0.279,0.3,0,0.119,0.127,0.55,0,0.72,0.171,0.7,0,0.875
63850,20090906,-83.39,33.78,0.121,0.43,0,0.518,0.123,0.49,0,0.595,0.122,0.39,0,0.482,0.194,0.49,0,0.482,0.277,0.28,0,0.119,0.122,0.48,0,0.577,0.167,0.64,0,0.732
63850,20090907,-83.39,33.78,0.116,0.36,0,0.375,0.116,0.41,0,0.452,0.118,0.33,0,0.339,0.192,0.44,0,0.339,0.274,0.25,0,0.089,0.116,0.41,0,0.435,0.163,0.56,0,0.589
63850,20090908,-83.39,33.78,0.109,0.28,0,0.232,0.108,0.32,0,0.31,0.112,0.26,0,0.196,0.19,0.39,0,0.196,0.271,0.22,0,0.024,0.109,0.32,0,0.292,0.158,0.47,0,0.446
63850,20090909,-83.39,33.78,0.102,0.19,0,0.089,0.1,0.22,0,0.167,0.106,0.19,0,0.054,0.188,0.34,0,0.065,0.269,0.19,0,0,0.101,0.22,0,0.149,0.153,0.37,0,0.304
63850,20090910,-83.39,33.78,0.096,0.12,0,0,0.092,0.14,0,0.024,0.1,0.12,0,0,0.186,0.3,0,0,0.267,0.18,0,0,0.094,0.15,0,0.006,0.148,0.29,0,0.161
63850,20090911,-83.39,33.78,0.093,0.08,0,0,0.087,0.09,0,0,0.096,0.06,0,0,0.184,0.28,0,0,0.267,0.17,0,0,0.09,0.1,0,0,0.145,0.24,0,0.018
63850,20090912,-83.39,33.78,0.09,0.06,0,0,0.082,0.04,0,0,0.091,0.01,0,0,0.183,0.26,0,0,0.266,0.17,0,0,0.086,0.06,0,0,0.142,0.2,0,0
63850,20090913,-83.39,33.78,0.087,0.03,0,0,0.077,0,0,0,0.088,-0.03,0,0,0.181,0.25,0,0,0.266,0.16,0,0,0.082,0.03,0,0,0.14,0.16,0,0
63850,20090914,-83.39,33.78,0.084,0,0,0,0.073,-0.04,0,0,0.084,-0.06,0,0,0.18,0.25,0,0,0.265,0.16,0,0,0.079,-0.01,0,0,0.137,0.13,0,0
63850,20090915,-83.39,33.78,0.082,-0.02,0,0,0.07,-0.08,0,0,0.081,-0.09,0,0,0.179,0.25,0,0,0.264,0.15,0,0,0.076,-0.04,0,0,0.135,0.1,0,0
63850,20090916,-83.39,33.78,0.08,-0.04,0,0,0.068,-0.1,0,0,0.079,-0.11,0,0,0.177,0.24,0,0,0.264,0.15,0,0,0.074,-0.06,0,0,0.134,0.07,0,0
63850,20090917,-83.39,33.78,0.084,0.03,0,0.101,0.073,-0.01,0,0.101,0.079,-0.11,0,0,0.176,0.24,0,0,0.263,0.14,0,0,0.079,0.02,0,0.101,0.135,0.11,0,0.089
63850,20090918,-83.39,33.78,0.096,0.2,0,0.244,0.093,0.25,0,0.244,0.092,0.08,0,0.101,0.184,0.5,0,0.101,0.271,0.21,0,0.101,0.095,0.25,0,0.244,0.147,0.34,0,0.232
63850,20090919,-83.39,33.78,0.108,0.35,0,0.387,0.113,0.5,0,0.387,0.104,0.27,0,0.244,0.194,0.8,0,0.244,0.283,0.32,0,0.244,0.11,0.46,0,0.387,0.16,0.58,0,0.375
63850,20090920,-83.39,33.78,0.121,0.52,0,0.53,0.134,0.75,0,0.53,0.118,0.46,0,0.387,0.204,1.12,0,0.387,0.296,0.43,0,0.387,0.128,0.68,0,0.53,0.175,0.82,0,0.518
63850,20090921,-83.39,33.78,0.135,0.7,0,0.673,0.156,1.01,0,0.673,0.132,0.64,0,0.53,0.214,1.44,0,0.53,0.309,0.54,0,0.53,0.145,0.91,0,0.673,0.189,1.07,0,0.661
63850,20090922,-83.39,33.78,0.156,0.96,0,0.815,0.181,1.3,0,0.815,0.149,0.86,0,0.673,0.227,1.8,0,0.673,0.322,0.66,0,0.673,0.168,1.2,0,0.815,0.207,1.36,0,0.804
63850,20090923,-83.39,33.78,0.171,1.16,0,0.958,0.201,1.54,0,0.958,0.162,1.03,0,0.815,0.237,2.07,0,0.815,0.336,0.78,0,0.815,0.186,1.42,0,0.958,0.221,1.6,0,0.946
63850,20090924,-83.39,33.78,0.179,1.25,0,1,0.21,1.63,0,1,0.173,1.16,0,0.958,0.245,2.29,0,0.958,0.349,0.9,0,0.958,0.195,1.52,0,1,0.231,1.74,0,1
63850,20090925,-83.39,33.78,0.176,1.19,0,1,0.203,1.51,0,1,0.169,1.09,0,1,0.244,2.21,0,1,0.355,0.94,0,1,0.19,1.42,0,1,0.23,1.67,0,1
63850,20090926,-83.39,33.78,0.173,1.14,0,1,0.195,1.39,0,1,0.165,1.02,0,1,0.242,2.08,0,1,0.355,0.93,0,1,0.184,1.32,0,1,0.226,1.57,0,1
63850,20090927,-83.39,33.78,0.175,1.14,0,1,0.191,1.31,0,1,0.162,0.95,0,1,0.242,1.99,0,1,0.356,0.92,0,1,0.183,1.28,0,1,0.225,1.51,0,1
63850,20090928,-83.39,33.78,0.175,1.11,0,1,0.187,1.23,0,1,0.159,0.89,0,1,0.241,1.85,0,1,0.356,0.89,0,1,0.181,1.22,0,1,0.223,1.44,0,1
63850,20090929,-83.39,33.78,0.166,0.98,0,1,0.176,1.09,0,1,0.153,0.79,0,1,0.236,1.65,0,1,0.356,0.87,0,1,0.171,1.07,0,1,0.218,1.31,0,1
63850,20090930,-83.39,33.78,0.163,0.91,0,1,0.17,0.98,0,1,0.149,0.71,0,1,0.234,1.51,0,1,0.355,0.84,0,1,0.166,0.98,0,1,0.214,1.23,0,1
63850,20091001,-83.39,33.78,0.161,0.86,0,1,0.166,0.91,0,1,0.145,0.65,0,0.97,0.233,1.4,0,1,0.355,0.82,0,1,0.163,0.92,0,1,0.212,1.16,0,1